This is the latest recevied weather packets stored in our database for station/object N2PPN. If no packets are shown the sender has not sent any weather packets the latest 1 day(s).
| Time | Temp. | Humidity | Pressure | Rain* | Wind** | Luminosity | Snow |
|---|---|---|---|---|---|---|---|
| 1777992138 | 17.78° C | 76% | 1015.2 hPa | 0 mm | 1.79 m/s, 242° | 599 W/m² | - |
| 1777991834 | 17.78° C | 76% | 1015.1 hPa | 0 mm | 1.79 m/s, 248° | 589 W/m² | - |
| 1777991532 | 17.78° C | 75% | 1015.3 hPa | 0 mm | 2.68 m/s, 220° | 581 W/m² | - |
| 1777991228 | 17.78° C | 76% | 1015.1 hPa | 0 mm | 3.13 m/s, 188° | 570 W/m² | - |
| 1777990926 | 17.78° C | 76% | 1015.2 hPa | 0 mm | 2.68 m/s, 164° | 559 W/m² | - |
| 1777990624 | 18.33° C | 75% | 1015.1 hPa | 0 mm | 2.24 m/s, 226° | 550 W/m² | - |
| 1777990320 | 18.33° C | 74% | 1015 hPa | 0 mm | 1.34 m/s, 241° | 542 W/m² | - |
| 1777990016 | 17.78° C | 76% | 1014.8 hPa | 0 mm | 2.68 m/s, 197° | 525 W/m² | - |
| 1777989714 | 17.78° C | 75% | 1014.8 hPa | 0 mm | 2.68 m/s, 210° | 524 W/m² | - |
| 1777989410 | 18.33° C | 76% | 1014.8 hPa | 0 mm | 1.79 m/s, 216° | 510 W/m² | - |
| 1777989106 | 18.33° C | 74% | 1014.6 hPa | 0 mm | 2.24 m/s, 209° | 497 W/m² | - |
| 1777988802 | 18.33° C | 74% | 1014.7 hPa | 0 mm | 1.34 m/s, 270° | 485 W/m² | - |
| 1777988500 | 18.33° C | 74% | 1014.7 hPa | 0 mm | 2.68 m/s, 212° | 473 W/m² | - |
| 1777988197 | 18.33° C | 75% | 1014.7 hPa | 0 mm | 1.79 m/s, 236° | 461 W/m² | - |
| 1777987893 | 17.78° C | 76% | 1014.8 hPa | 0 mm | 1.79 m/s, 153° | 448 W/m² | - |
| 1777987589 | 17.78° C | 76% | 1014.8 hPa | 0 mm | 2.24 m/s, 164° | 433 W/m² | - |
| 1777987287 | 18.33° C | 76% | 1014.7 hPa | 0 mm | 1.34 m/s, 203° | 422 W/m² | - |
| 1777986983 | 17.78° C | 77% | 1014.8 hPa | 0 mm | 1.34 m/s, 227° | 406 W/m² | - |
| 1777986681 | 17.22° C | 78% | 1014.7 hPa | 0 mm | 1.34 m/s, 256° | 393 W/m² | - |
| 1777986379 | 16.67° C | 79% | 1014.6 hPa | 0 mm | 1.34 m/s, 148° | 377 W/m² | - |
| 1777986077 | 16.67° C | 81% | 1014.7 hPa | 0 mm | 2.24 m/s, 202° | 366 W/m² | - |
| 1777985773 | 16.67° C | 81% | 1014.6 hPa | 0 mm | 3.13 m/s, 223° | 350 W/m² | - |
| 1777985471 | 16.67° C | 81% | 1014.8 hPa | 0 mm | 1.79 m/s, 206° | 334 W/m² | - |
| 1777985167 | 16.67° C | 81% | 1014.6 hPa | 0 mm | 2.24 m/s, 227° | 323 W/m² | - |
| 1777984863 | 16.11° C | 82% | 1014.4 hPa | 0 mm | 1.79 m/s, 181° | 308 W/m² | - |
* Rain latest hour (hover to see other rain measurements)
** Current wind speed in m/s (hover to see current wind gust speed)